| time (UTC) | temp F | wind direction | speed MPH | gust MPH | rain 1hr in | rain 24hr in | rain mn in | humidity % | barometer mb |
| 20260906005139 | 69 | 34 | 2.0 | 7.0 | 0.00 | 0.00 | 0.00 | 70 | 1016.9 |
| 20260906004658 | 69 | 54 | 3.0 | 11.0 | 0.00 | 0.00 | 0.00 | 70 | 1016.8 |
| 20260906004137 | 69 | 68 | 3.0 | 12.0 | 0.00 | 0.00 | 0.00 | 69 | 1016.9 |
| 20260906003635 | 69 | 32 | 3.0 | 11.0 | 0.00 | 0.00 | 0.00 | 70 | 1016.8 |
| 20260906003135 | 69 | 48 | 2.0 | 10.0 | 0.00 | 0.00 | 0.00 | 71 | 1016.8 |
| 20260906002635 | 70 | 97 | 5.0 | 13.0 | 0.00 | 0.00 | 0.00 | 71 | 1016.7 |
| 20260906001507 | 71 | 113 | 2.0 | 14.0 | 0.00 | 0.00 | 0.00 | 72 | 1016.5 |
| 20260906001007 | 71 | 79 | 3.0 | 14.0 | 0.00 | 0.00 | 0.00 | 72 | 1016.4 |
| 20260906000506 | 71 | 84 | 2.0 | 16.0 | 0.00 | 0.00 | 0.00 | 71 | 1016.2 |
| 20260906000004 | 71 | 91 | 3.0 | 12.0 | 0.00 | 0.00 | 0.00 | 70 | 1016.2 |
| 20260905235504 | 72 | 21 | 1.0 | 11.0 | 0.00 | 0.00 | 0.00 | 69 | 1016.2 |
| 20260905235003 | 72 | 41 | 1.0 | 10.0 | 0.00 | 0.00 | 0.00 | 68 | 1016.2 |
| 20260905234501 | 72 | 151 | 1.0 | 6.0 | 0.00 | 0.00 | 0.00 | 67 | 1016.1 |
| 20260905234002 | 73 | 35 | 0.0 | 4.0 | 0.00 | 0.00 | 0.00 | 66 | 1016.1 |
| 20260905233500 | 73 | 123 | 2.0 | 8.0 | 0.00 | 0.00 | 0.00 | 65 | 1016.2 |
| 20260905232958 | 73 | 91 | 2.0 | 9.0 | 0.00 | 0.00 | 0.00 | 65 | 1016.2 |
| 20260905232457 | 73 | 85 | 1.0 | 6.0 | 0.00 | 0.00 | 0.00 | 64 | 1016.2 |
| 20260905231957 | 74 | 337 | 0.0 | 2.0 | 0.00 | 0.00 | 0.00 | 64 | 1016.1 |
| 20260905231456 | 74 | 339 | 1.0 | 5.0 | 0.00 | 0.00 | 0.00 | 64 | 1016.1 |
| 20260905230954 | 74 | 130 | 0.0 | 0.0 | 0.00 | 0.00 | 0.00 | 63 | 1016.1 |
| 20260905230454 | 75 | 350 | 1.0 | 4.0 | 0.00 | 0.00 | 0.00 | 62 | 1016.0 |
| 20260905225952 | 75 | 70 | 2.0 | 9.0 | 0.00 | 0.00 | 0.00 | 61 | 1016.0 |
| 20260905225452 | 76 | 117 | 1.0 | 9.0 | 0.00 | 0.00 | 0.00 | 60 | 1015.9 |
| 20260905224950 | 77 | 121 | 2.0 | 8.0 | 0.00 | 0.00 | 0.00 | 59 | 1015.8 |
| 20260905224449 | 77 | 23 | 5.0 | 15.0 | 0.00 | 0.00 | 0.00 | 57 | 1015.6 |
| 20260905223949 | 79 | 0 | 2.0 | 8.0 | 0.00 | 0.00 | 0.00 | 57 | 1015.5 |
| 20260905223448 | 80 | 129 | 2.0 | 8.0 | 0.00 | 0.00 | 0.00 | 55 | 1015.3 |
| 20260905222946 | 82 | 121 | 3.0 | 13.0 | 0.00 | 0.00 | 0.00 | 52 | 1015.1 |
| 20260905222448 | 83 | 124 | 3.0 | 11.0 | 0.00 | 0.00 | 0.00 | 51 | 1015.1 |
| 20260905221944 | 82 | 115 | 4.0 | 12.0 | 0.00 | 0.00 | 0.00 | 53 | 1015.1 |
| 20260905221505 | 81 | 127 | 1.0 | 14.0 | 0.00 | 0.00 | 0.00 | 55 | 1015.1 |
| 20260905220943 | 78 | 121 | 4.0 | 11.0 | 0.00 | 0.00 | 0.00 | 57 | 1015.3 |
| 20260905220441 | 78 | 121 | 3.0 | 12.0 | 0.00 | 0.00 | 0.00 | 58 | 1015.4 |
| 20260905215941 | 78 | 358 | 5.0 | 13.0 | 0.00 | 0.00 | 0.00 | 57 | 1015.4 |
| 20260905215439 | 78 | 116 | 2.0 | 15.0 | 0.00 | 0.00 | 0.00 | 57 | 1015.4 |
| 20260905214938 | 78 | 24 | 1.0 | 5.0 | 0.00 | 0.00 | 0.00 | 58 | 1015.3 |
| 20260905214458 | 78 | 12 | 6.0 | 16.0 | 0.00 | 0.00 | 0.00 | 57 | 1015.3 |
| 20260905213936 | 78 | 11 | 3.0 | 13.0 | 0.00 | 0.00 | 0.00 | 57 | 1015.3 |
| 20260905213435 | 78 | 136 | 3.0 | 12.0 | 0.00 | 0.00 | 0.00 | 57 | 1015.2 |
| 20260905212934 | 78 | 140 | 4.0 | 11.0 | 0.00 | 0.00 | 0.00 | 56 | 1015.2 |
| 20260905212436 | 79 | 76 | 3.0 | 11.0 | 0.00 | 0.00 | 0.00 | 56 | 1015.2 |
| 20260905211932 | 78 | 22 | 4.0 | 15.0 | 0.00 | 0.00 | 0.00 | 56 | 1015.2 |
| 20260905211431 | 78 | 16 | 3.0 | 12.0 | 0.00 | 0.00 | 0.00 | 56 | 1015.2 |
| 20260905210930 | 78 | 75 | 5.0 | 11.0 | 0.00 | 0.00 | 0.00 | 56 | 1015.2 |
| 20260905210429 | 78 | 47 | 2.0 | 8.0 | 0.00 | 0.00 | 0.00 | 56 | 1015.1 |
| 20260905205928 | 78 | 60 | 4.0 | 12.0 | 0.00 | 0.00 | 0.00 | 56 | 1015.1 |
| 20260905205428 | 78 | 110 | 3.0 | 11.0 | 0.00 | 0.00 | 0.00 | 57 | 1015.2 |
| 20260905204926 | 78 | 104 | 2.0 | 12.0 | 0.00 | 0.00 | 0.00 | 58 | 1015.1 |
| 20260905204425 | 79 | 136 | 4.0 | 15.0 | 0.00 | 0.00 | 0.00 | 58 | 1015.1 |
| 20260905203924 | 79 | 6 | 4.0 | 9.0 | 0.00 | 0.00 | 0.00 | 58 | 1015.1 |
| 20260905203424 | 78 | 15 | 2.0 | 12.0 | 0.00 | 0.00 | 0.00 | 59 | 1015.1 |
| 20260905202921 | 78 | 138 | 4.0 | 13.0 | 0.00 | 0.00 | 0.00 | 58 | 1015.1 |
| 20260905202422 | 78 | 141 | 6.0 | 15.0 | 0.00 | 0.00 | 0.00 | 58 | 1015.1 |
| 20260905201921 | 79 | 118 | 6.0 | 16.0 | 0.00 | 0.00 | 0.00 | 58 | 1015.1 |
| 20260905201419 | 79 | 123 | 3.0 | 8.0 | 0.00 | 0.00 | 0.00 | 60 | 1015.1 |
| 20260905200938 | 79 | 17 | 3.0 | 12.0 | 0.00 | 0.00 | 0.00 | 60 | 1015.2 |
| 20260905200417 | 79 | 136 | 5.0 | 20.0 | 0.00 | 0.00 | 0.00 | 61 | 1015.3 |
| 20260905195916 | 79 | 133 | 3.0 | 9.0 | 0.00 | 0.00 | 0.00 | 60 | 1015.3 |
| 20260905195414 | 79 | 119 | 2.0 | 7.0 | 0.00 | 0.00 | 0.00 | 60 | 1015.3 |
| 20260905194913 | 80 | 128 | 1.0 | 8.0 | 0.00 | 0.00 | 0.00 | 60 | 1015.2 |
| 20260905194434 | 80 | 3 | 3.0 | 6.0 | 0.00 | 0.00 | 0.00 | 58 | 1015.2 |
| 20260905193912 | 80 | 136 | 1.0 | 8.0 | 0.00 | 0.00 | 0.00 | 59 | 1015.2 |
| 20260905193411 | 80 | 149 | 4.0 | 10.0 | 0.00 | 0.00 | 0.00 | 58 | 1015.2 |
| 20260905192931 | 81 | 140 | 1.0 | 7.0 | 0.00 | 0.00 | 0.00 | 61 | 1015.3 |
| 20260905192408 | 80 | 14 | 2.0 | 8.0 | 0.00 | 0.00 | 0.00 | 60 | 1015.4 |
| 20260905191908 | 80 | 20 | 2.0 | 7.0 | 0.00 | 0.00 | 0.00 | 60 | 1015.4 |
| 20260905191427 | 81 | 11 | 4.0 | 11.0 | 0.00 | 0.00 | 0.00 | 59 | 1015.3 |
| 20260905190906 | 81 | 107 | 3.0 | 8.0 | 0.00 | 0.00 | 0.00 | 61 | 1015.3 |
| 20260905190426 | 81 | 27 | 6.0 | 16.0 | 0.00 | 0.00 | 0.00 | 58 | 1015.3 |
| 20260905185924 | 82 | 136 | 6.0 | 16.0 | 0.00 | 0.00 | 0.00 | 57 | 1015.3 |
| 20260905185423 | 83 | 145 | 4.0 | 10.0 | 0.00 | 0.00 | 0.00 | 56 | 1015.3 |
| 20260905184902 | 84 | 142 | 5.0 | 17.0 | 0.00 | 0.00 | 0.00 | 55 | 1015.3 |
| 20260905184402 | 84 | 172 | 7.0 | 15.0 | 0.00 | 0.00 | 0.00 | 55 | 1015.3 |
| 20260905183859 | 83 | 113 | 4.0 | 10.0 | 0.00 | 0.00 | 0.00 | 54 | 1015.4 |
| 20260905183400 | 84 | 140 | 5.0 | 17.0 | 0.00 | 0.00 | 0.00 | 54 | 1015.4 |
| 20260905182857 | 84 | 134 | 5.0 | 12.0 | 0.00 | 0.00 | 0.00 | 52 | 1015.3 |
| 20260905182356 | 85 | 122 | 4.0 | 10.0 | 0.00 | 0.00 | 0.00 | 51 | 1015.2 |
| 20260905181857 | 86 | 23 | 3.0 | 11.0 | 0.00 | 0.00 | 0.00 | 51 | 1015.2 |
| 20260905181357 | 85 | 136 | 7.0 | 12.0 | 0.00 | 0.00 | 0.00 | 53 | 1015.3 |
| 20260905180854 | 85 | 113 | 4.0 | 14.0 | 0.00 | 0.00 | 0.00 | 54 | 1015.3 |
| 20260905180353 | 84 | 352 | 0.0 | 6.0 | 0.00 | 0.00 | 0.00 | 57 | 1015.3 |
| 20260905175851 | 85 | 158 | 3.0 | 11.0 | 0.00 | 0.00 | 0.00 | 54 | 1015.2 |
| 20260905175412 | 84 | 131 | 5.0 | 10.0 | 0.00 | 0.00 | 0.00 | 52 | 1015.2 |
| 20260905174849 | 85 | 84 | 4.0 | 14.0 | 0.00 | 0.00 | 0.00 | 52 | 1015.2 |
| 20260905174348 | 85 | 117 | 2.0 | 8.0 | 0.00 | 0.00 | 0.00 | 55 | 1015.2 |
| 20260905173847 | 84 | 85 | 3.0 | 15.0 | 0.00 | 0.00 | 0.00 | 54 | 1015.2 |
| 20260905173346 | 85 | 128 | 3.0 | 13.0 | 0.00 | 0.00 | 0.00 | 56 | 1015.2 |
| 20260905172845 | 84 | 147 | 2.0 | 7.0 | 0.00 | 0.00 | 0.00 | 60 | 1015.2 |
| 20260905172405 | 83 | 149 | 3.0 | 8.0 | 0.00 | 0.00 | 0.00 | 60 | 1015.4 |
| 20260905171843 | 82 | 137 | 7.0 | 13.0 | 0.00 | 0.00 | 0.00 | 57 | 1015.5 |
| 20260905171345 | 83 | 134 | 6.0 | 14.0 | 0.00 | 0.00 | 0.00 | 56 | 1015.5 |
| 20260905170841 | 83 | 142 | 5.0 | 16.0 | 0.00 | 0.00 | 0.00 | 59 | 1015.5 |
| 20260905170341 | 80 | 127 | 2.0 | 11.0 | 0.00 | 0.00 | 0.00 | 61 | 1015.8 |
| 20260905165840 | 80 | 125 | 4.0 | 10.0 | 0.00 | 0.00 | 0.00 | 62 | 1015.9 |
| 20260905165339 | 80 | 278 | 1.0 | 4.0 | 0.00 | 0.00 | 0.00 | 63 | 1015.9 |
| 20260905164837 | 80 | 153 | 1.0 | 5.0 | 0.00 | 0.00 | 0.00 | 65 | 1016.0 |
| 20260905164336 | 79 | 157 | 3.0 | 11.0 | 0.00 | 0.00 | 0.00 | 62 | 1016.0 |
| 20260905163836 | 80 | 149 | 4.0 | 11.0 | 0.00 | 0.00 | 0.00 | 63 | 1015.9 |
| 20260905163336 | 80 | 144 | 4.0 | 9.0 | 0.00 | 0.00 | 0.00 | 63 | 1015.9 |
| 20260905162833 | 79 | 138 | 4.0 | 10.0 | 0.00 | 0.00 | 0.00 | 67 | 1015.9 |
| 20260905162332 | 79 | 161 | 0.0 | 1.0 | 0.00 | 0.00 | 0.00 | 67 | 1016.0 |
| 20260905161832 | 79 | 126 | 2.0 | 11.0 | 0.00 | 0.00 | 0.00 | 64 | 1016.0 |
| 20260905161330 | 79 | 110 | 5.0 | 14.0 | 0.00 | 0.00 | 0.00 | 63 | 1016.0 |
| 20260905160851 | 79 | 136 | 1.0 | 7.0 | 0.00 | 0.00 | 0.00 | 64 | 1015.9 |
| 20260905160328 | 79 | 128 | 4.0 | 18.0 | 0.00 | 0.00 | 0.00 | 65 | 1015.9 |
| 20260905155828 | 79 | 153 | 3.0 | 8.0 | 0.00 | 0.00 | 0.00 | 64 | 1015.8 |
| 20260905155327 | 80 | 129 | 5.0 | 17.0 | 0.00 | 0.00 | 0.00 | 64 | 1015.8 |
| 20260905154825 | 79 | 60 | 2.0 | 9.0 | 0.00 | 0.00 | 0.00 | 67 | 1015.8 |
| 20260905154324 | 78 | 123 | 5.0 | 18.0 | 0.00 | 0.00 | 0.00 | 68 | 1015.8 |
| 20260905153823 | 79 | 115 | 2.0 | 13.0 | 0.00 | 0.00 | 0.00 | 67 | 1015.8 |
| 20260905153322 | 78 | 132 | 3.0 | 10.0 | 0.00 | 0.00 | 0.00 | 68 | 1015.8 |
| 20260905152843 | 77 | 143 | 4.0 | 14.0 | 0.00 | 0.00 | 0.00 | 70 | 1015.7 |
| 20260905152320 | 76 | 140 | 5.0 | 14.0 | 0.00 | 0.00 | 0.00 | 69 | 1015.8 |
| 20260905151819 | 76 | 143 | 5.0 | 14.0 | 0.00 | 0.00 | 0.00 | 71 | 1015.9 |
| 20260905151318 | 75 | 133 | 5.0 | 19.0 | 0.00 | 0.00 | 0.00 | 73 | 1015.9 |
| 20260905150839 | 75 | 126 | 2.0 | 13.0 | 0.00 | 0.00 | 0.00 | 75 | 1015.9 |
| 20260905150317 | 75 | 120 | 3.0 | 14.0 | 0.00 | 0.00 | 0.00 | 75 | 1015.9 |
| 20260905145815 | 75 | 92 | 2.0 | 7.0 | 0.00 | 0.00 | 0.00 | 74 | 1015.8 |
| 20260905145314 | 75 | 137 | 4.0 | 13.0 | 0.00 | 0.00 | 0.00 | 73 | 1015.8 |
| 20260905144813 | 75 | 144 | 4.0 | 13.0 | 0.00 | 0.00 | 0.00 | 74 | 1015.8 |
| 20260905144312 | 75 | 107 | 4.0 | 11.0 | 0.00 | 0.00 | 0.00 | 75 | 1015.8 |
| 20260905143814 | 75 | 141 | 2.0 | 8.0 | 0.00 | 0.00 | 0.00 | 77 | 1015.8 |
| 20260905143332 | 74 | 106 | 1.0 | 4.0 | 0.00 | 0.00 | 0.00 | 78 | 1015.8 |
| 20260905142810 | 74 | 117 | 1.0 | 7.0 | 0.00 | 0.00 | 0.00 | 79 | 1015.7 |
| 20260905142308 | 73 | 135 | 5.0 | 15.0 | 0.00 | 0.00 | 0.00 | 80 | 1015.7 |
| 20260905141810 | 72 | 131 | 4.0 | 13.0 | 0.00 | 0.00 | 0.00 | 81 | 1015.7 |
| 20260905141306 | 72 | 170 | 1.0 | 7.0 | 0.00 | 0.00 | 0.00 | 81 | 1015.6 |
| 20260905140806 | 72 | 145 | 2.0 | 7.0 | 0.00 | 0.00 | 0.00 | 83 | 1015.6 |
| 20260905140304 | 70 | 175 | 1.0 | 4.0 | 0.00 | 0.00 | 0.00 | 85 | 1015.7 |
| 20260905135803 | 70 | 117 | 4.0 | 13.0 | 0.00 | 0.00 | 0.00 | 84 | 1015.8 |
| 20260905135302 | 70 | 144 | 1.0 | 7.0 | 0.00 | 0.00 | 0.00 | 85 | 1015.9 |
| 20260905134802 | 70 | 58 | 1.0 | 5.0 | 0.00 | 0.00 | 0.00 | 85 | 1016.0 |
| 20260905134300 | 70 | 20 | 1.0 | 6.0 | 0.00 | 0.00 | 0.00 | 85 | 1015.9 |
| 20260905133759 | 70 | 112 | 3.0 | 7.0 | 0.00 | 0.00 | 0.00 | 85 | 1015.9 |
| 20260905133319 | 70 | 34 | 1.0 | 5.0 | 0.00 | 0.00 | 0.00 | 86 | 1015.9 |
| 20260905132757 | 69 | 27 | 1.0 | 9.0 | 0.00 | 0.00 | 0.00 | 87 | 1015.9 |
| 20260905132256 | 69 | 106 | 3.0 | 9.0 | 0.00 | 0.00 | 0.00 | 87 | 1015.9 |
| 20260905131755 | 69 | 11 | 0.0 | 2.0 | 0.00 | 0.00 | 0.00 | 89 | 1015.9 |
| 20260905131254 | 68 | 111 | 0.0 | 3.0 | 0.00 | 0.00 | 0.00 | 89 | 1015.9 |
| 20260905130753 | 68 | 163 | 1.0 | 5.0 | 0.00 | 0.00 | 0.00 | 88 | 1015.9 |
| 20260905130255 | 68 | 148 | 2.0 | 7.0 | 0.00 | 0.00 | 0.00 | 89 | 1015.9 |
| 20260905125812 | 68 | 325 | 0.0 | 0.0 | 0.00 | 0.00 | 0.00 | 90 | 1016.0 |
| 20260905125311 | 68 | 136 | 0.0 | 2.0 | 0.00 | 0.00 | 0.00 | 90 | 1016.0 |
| 20260905124810 | 68 | 143 | 0.0 | 4.0 | 0.00 | 0.00 | 0.00 | 90 | 1016.0 |
| 20260905124248 | 67 | 128 | 1.0 | 7.0 | 0.00 | 0.00 | 0.00 | 90 | 1016.1 |
| 20260905123747 | 67 | 336 | 0.0 | 0.0 | 0.00 | 0.00 | 0.00 | 90 | 1016.1 |
| 20260905123246 | 67 | 157 | 0.0 | 0.0 | 0.00 | 0.00 | 0.00 | 90 | 1016.1 |
| 20260905122745 | 67 | 357 | 0.0 | 5.0 | 0.00 | 0.00 | 0.00 | 90 | 1016.1 |
| 20260905122244 | 67 | 82 | 1.0 | 6.0 | 0.00 | 0.00 | 0.00 | 90 | 1016.0 |
| 20260905121743 | 67 | 124 | 0.0 | 3.0 | 0.00 | 0.00 | 0.00 | 91 | 1016.0 |
| 20260905121304 | 67 | 98 | 2.0 | 12.0 | 0.00 | 0.00 | 0.00 | 91 | 1015.9 |
| 20260905120741 | 67 | 92 | 1.0 | 8.0 | 0.00 | 0.00 | 0.00 | 91 | 1015.8 |
| 20260905120240 | 67 | 114 | 1.0 | 9.0 | 0.00 | 0.00 | 0.00 | 91 | 1015.8 |
| 20260905115801 | 67 | 128 | 2.0 | 11.0 | 0.00 | 0.00 | 0.00 | 91 | 1015.8 |
| 20260905115238 | 67 | 280 | 0.0 | 0.0 | 0.00 | 0.00 | 0.00 | 91 | 1015.8 |
| 20260905114737 | 67 | 108 | 1.0 | 5.0 | 0.00 | 0.00 | 0.00 | 91 | 1015.8 |
| 20260905114236 | 67 | 70 | 0.0 | 0.0 | 0.00 | 0.00 | 0.00 | 91 | 1015.7 |
| 20260905113756 | 67 | 78 | 0.0 | 3.0 | 0.00 | 0.00 | 0.00 | 91 | 1015.6 |
| 20260905113255 | 67 | 120 | 1.0 | 8.0 | 0.00 | 0.00 | 0.00 | 91 | 1015.5 |
| 20260905112754 | 67 | 137 | 1.0 | 5.0 | 0.00 | 0.00 | 0.00 | 91 | 1015.5 |
| 20260905112234 | 67 | 101 | 1.0 | 8.0 | 0.00 | 0.00 | 0.00 | 91 | 1015.4 |
| 20260905111731 | 67 | 120 | 1.0 | 9.0 | 0.00 | 0.00 | 0.00 | 91 | 1015.4 |
| 20260905111230 | 67 | 129 | 1.0 | 8.0 | 0.00 | 0.00 | 0.00 | 91 | 1015.5 |
| 20260905110730 | 67 | 134 | 1.0 | 8.0 | 0.00 | 0.00 | 0.00 | 91 | 1015.4 |
| 20260905110249 | 67 | 125 | 2.0 | 15.0 | 0.00 | 0.00 | 0.00 | 91 | 1015.4 |
| 20260905105726 | 67 | 98 | 0.0 | 6.0 | 0.00 | 0.00 | 0.00 | 91 | 1015.4 |
| 20260905105225 | 67 | 158 | 0.0 | 4.0 | 0.00 | 0.00 | 0.00 | 91 | 1015.3 |
| 20260905104725 | 67 | 131 | 0.0 | 4.0 | 0.00 | 0.00 | 0.00 | 92 | 1015.4 |
| 20260905104225 | 67 | 110 | 1.0 | 4.0 | 0.00 | 0.00 | 0.00 | 92 | 1015.4 |
| 20260905103744 | 67 | 119 | 1.0 | 11.0 | 0.00 | 0.00 | 0.00 | 92 | 1015.4 |
| 20260905103242 | 67 | 33 | 0.0 | 5.0 | 0.00 | 0.00 | 0.00 | 92 | 1015.5 |
| 20260905102720 | 67 | 130 | 1.0 | 7.0 | 0.00 | 0.00 | 0.00 | 93 | 1015.5 |
| 20260905102240 | 67 | 113 | 2.0 | 14.0 | 0.00 | 0.00 | 0.00 | 93 | 1015.5 |
| 20260905101740 | 67 | 110 | 1.0 | 11.0 | 0.00 | 0.00 | 0.00 | 94 | 1015.4 |
| 20260905101217 | 67 | 62 | 1.0 | 9.0 | 0.00 | 0.00 | 0.00 | 94 | 1015.2 |
| 20260905100717 | 67 | 121 | 2.0 | 11.0 | 0.00 | 0.00 | 0.00 | 94 | 1015.2 |
| 20260905100216 | 67 | 123 | 1.0 | 10.0 | 0.00 | 0.00 | 0.00 | 94 | 1015.3 |
| 20260905095715 | 67 | 136 | 3.0 | 10.0 | 0.00 | 0.00 | 0.00 | 94 | 1015.3 |
| 20260905095213 | 67 | 96 | 1.0 | 7.0 | 0.00 | 0.00 | 0.00 | 94 | 1015.4 |
| 20260905094713 | 67 | 141 | 1.0 | 7.0 | 0.00 | 0.00 | 0.00 | 94 | 1015.4 |
| 20260905094232 | 67 | 99 | 1.0 | 13.0 | 0.00 | 0.00 | 0.00 | 94 | 1015.4 |
| 20260905093732 | 67 | 118 | 1.0 | 10.0 | 0.00 | 0.00 | 0.00 | 94 | 1015.3 |
| 20260905093210 | 67 | 106 | 2.0 | 12.0 | 0.00 | 0.00 | 0.00 | 94 | 1015.2 |
| 20260905092709 | 67 | 4 | 0.0 | 2.0 | 0.00 | 0.00 | 0.00 | 94 | 1015.1 |
| 20260905092207 | 67 | 96 | 0.0 | 4.0 | 0.00 | 0.00 | 0.00 | 95 | 1015.2 |
| 20260905091706 | 68 | 143 | 0.0 | 2.0 | 0.00 | 0.00 | 0.00 | 95 | 1015.2 |
| 20260905091206 | 68 | 75 | 0.0 | 0.0 | 0.00 | 0.00 | 0.00 | 95 | 1015.4 |
| 20260905090704 | 68 | 75 | 0.0 | 0.0 | 0.00 | 0.00 | 0.00 | 95 | 1015.4 |
| 20260905090203 | 67 | 75 | 0.0 | 0.0 | 0.00 | 0.00 | 0.00 | 95 | 1015.4 |
| 20260905085702 | 67 | 120 | 0.0 | 4.0 | 0.00 | 0.00 | 0.00 | 95 | 1015.2 |
| 20260905085202 | 68 | 126 | 1.0 | 5.0 | 0.00 | 0.00 | 0.00 | 95 | 1015.1 |
| 20260905084701 | 68 | 357 | 0.0 | 2.0 | 0.00 | 0.00 | 0.00 | 95 | 1015.1 |
| 20260905084159 | 67 | 347 | 0.0 | 5.0 | 0.00 | 0.00 | 0.00 | 95 | 1015.0 |
| 20260905083659 | 67 | 247 | 0.0 | 3.0 | 0.00 | 0.00 | 0.00 | 95 | 1014.8 |
| 20260905083218 | 67 | 147 | 1.0 | 8.0 | 0.00 | 0.00 | 0.00 | 95 | 1014.7 |
| 20260905082717 | 67 | 159 | 0.0 | 4.0 | 0.00 | 0.00 | 0.00 | 96 | 1014.8 |
| 20260905082155 | 67 | 0 | 0.0 | 0.0 | 0.00 | 0.00 | 0.00 | 96 | 1014.8 |
| 20260905081655 | 67 | 153 | 1.0 | 7.0 | 0.00 | 0.00 | 0.00 | 96 | 1014.7 |
| 20260905081153 | 67 | 127 | 1.0 | 6.0 | 0.00 | 0.00 | 0.00 | 96 | 1014.6 |
| 20260905080653 | 68 | 108 | 0.0 | 6.0 | 0.00 | 0.00 | 0.00 | 96 | 1014.6 |
| 20260905080152 | 68 | 65 | 0.0 | 0.0 | 0.00 | 0.00 | 0.00 | 96 | 1014.7 |
| 20260905075711 | 68 | 135 | 0.0 | 5.0 | 0.00 | 0.00 | 0.00 | 96 | 1014.9 |
| 20260905075149 | 68 | 14 | 0.0 | 1.0 | 0.00 | 0.00 | 0.00 | 96 | 1014.9 |
| 20260905074649 | 68 | 15 | 0.0 | 4.0 | 0.00 | 0.00 | 0.00 | 96 | 1014.9 |
| 20260905074147 | 68 | 160 | 0.0 | 2.0 | 0.00 | 0.00 | 0.00 | 96 | 1015.0 |
| 20260905073646 | 68 | 147 | 0.0 | 0.0 | 0.00 | 0.00 | 0.00 | 96 | 1015.0 |
| 20260905073207 | 68 | 126 | 0.0 | 0.0 | 0.00 | 0.00 | 0.00 | 96 | 1015.0 |
| 20260905072705 | 68 | 6 | 0.0 | 1.0 | 0.00 | 0.00 | 0.00 | 96 | 1015.2 |
| 20260905072144 | 68 | 126 | 1.0 | 7.0 | 0.00 | 0.00 | 0.00 | 97 | 1015.2 |
| 20260905071643 | 68 | 149 | 2.0 | 12.0 | 0.00 | 0.00 | 0.00 | 97 | 1015.0 |
| 20260905071141 | 68 | 119 | 0.0 | 4.0 | 0.00 | 0.00 | 0.00 | 97 | 1014.9 |
| 20260905070640 | 68 | 111 | 0.0 | 0.0 | 0.00 | 0.00 | 0.00 | 97 | 1014.7 |
| 20260905070139 | 68 | 61 | 0.0 | 0.0 | 0.00 | 0.00 | 0.00 | 97 | 1014.7 |
| 20260905065638 | 68 | 101 | 0.0 | 3.0 | 0.00 | 0.00 | 0.00 | 97 | 1014.6 |
| 20260905065137 | 68 | 147 | 1.0 | 8.0 | 0.00 | 0.00 | 0.00 | 97 | 1014.5 |
| 20260905064636 | 68 | 135 | 0.0 | 3.0 | 0.00 | 0.00 | 0.00 | 97 | 1014.4 |
| 20260905064135 | 68 | 105 | 0.0 | 0.0 | 0.00 | 0.00 | 0.00 | 97 | 1014.5 |
| 20260905063634 | 68 | 105 | 0.0 | 0.0 | 0.00 | 0.00 | 0.00 | 97 | 1014.5 |
| 20260905063133 | 68 | 75 | 0.0 | 0.0 | 0.00 | 0.00 | 0.00 | 97 | 1014.6 |
| 20260905062633 | 68 | 178 | 0.0 | 3.0 | 0.00 | 0.00 | 0.00 | 97 | 1014.6 |
| 20260905062132 | 68 | 132 | 1.0 | 5.0 | 0.00 | 0.00 | 0.00 | 97 | 1014.5 |
| 20260905061631 | 68 | 17 | 0.0 | 0.0 | 0.00 | 0.00 | 0.00 | 97 | 1014.6 |
| 20260905061150 | 68 | 75 | 0.0 | 1.0 | 0.00 | 0.00 | 0.00 | 97 | 1014.6 |
| 20260905060649 | 68 | 90 | 0.0 | 0.0 | 0.00 | 0.00 | 0.00 | 97 | 1014.9 |
| 20260905060148 | 68 | 87 | 0.0 | 0.0 | 0.00 | 0.00 | 0.00 | 97 | 1015.0 |
| 20260905055626 | 68 | 36 | 0.0 | 0.0 | 0.00 | 0.00 | 0.00 | 97 | 1015.0 |
| 20260905055124 | 69 | 38 | 0.0 | 0.0 | 0.00 | 0.00 | 0.00 | 97 | 1015.0 |
| 20260905054623 | 69 | 165 | 0.0 | 5.0 | 0.00 | 0.00 | 0.00 | 97 | 1015.0 |
| 20260905054122 | 69 | 184 | 0.0 | 0.0 | 0.00 | 0.00 | 0.00 | 97 | 1015.1 |
| 20260905053622 | 69 | 184 | 0.0 | 0.0 | 0.00 | 0.00 | 0.00 | 97 | 1015.1 |
| 20260905053121 | 69 | 152 | 0.0 | 4.0 | 0.00 | 0.00 | 0.00 | 97 | 1015.2 |
| 20260905052620 | 69 | 189 | 1.0 | 5.0 | 0.00 | 0.00 | 0.00 | 97 | 1015.2 |
| 20260905052119 | 69 | 137 | 1.0 | 8.0 | 0.00 | 0.00 | 0.00 | 97 | 1015.2 |
| 20260905051619 | 69 | 343 | 0.0 | 4.0 | 0.00 | 0.00 | 0.00 | 97 | 1015.1 |
| 20260905051117 | 69 | 136 | 0.0 | 0.0 | 0.00 | 0.00 | 0.00 | 97 | 1015.1 |
| 20260905050616 | 69 | 29 | 0.0 | 1.0 | 0.00 | 0.00 | 0.00 | 97 | 1015.1 |
| 20260905050115 | 69 | 356 | 0.0 | 0.0 | 0.00 | 0.00 | 0.00 | 96 | 1015.0 |
| 20260905045614 | 69 | 74 | 0.0 | 0.0 | 0.00 | 0.00 | 0.00 | 96 | 1015.0 |
| 20260905045112 | 70 | 101 | 1.0 | 5.0 | 0.00 | 0.00 | 0.00 | 96 | 1014.9 |
| 20260905044632 | 70 | 144 | 0.0 | 5.0 | 0.00 | 0.00 | 0.00 | 97 | 1015.0 |
| 20260905044110 | 70 | 171 | 0.0 | 0.0 | 0.00 | 0.00 | 0.00 | 97 | 1015.1 |
| 20260905043610 | 70 | 171 | 0.0 | 0.0 | 0.00 | 0.00 | 0.00 | 97 | 1015.2 |
| 20260905043109 | 70 | 171 | 0.0 | 0.0 | 0.00 | 0.00 | 0.00 | 97 | 1015.3 |
| 20260905042629 | 70 | 82 | 0.0 | 0.0 | 0.00 | 0.00 | 0.00 | 97 | 1015.3 |
| 20260905042107 | 70 | 81 | 0.0 | 9.0 | 0.00 | 0.00 | 0.00 | 97 | 1015.2 |
| 20260905041606 | 70 | 187 | 0.0 | 2.0 | 0.00 | 0.00 | 0.00 | 97 | 1015.2 |
| 20260905041105 | 70 | 105 | 0.0 | 3.0 | 0.00 | 0.00 | 0.00 | 97 | 1015.2 |
| 20260905040604 | 70 | 40 | 0.0 | 0.0 | 0.00 | 0.00 | 0.00 | 97 | 1015.2 |
| 20260905035605 | 70 | 110 | 1.0 | 7.0 | 0.00 | 0.00 | 0.39 | 97 | 1015.3 |
| 20260905035102 | 70 | 214 | 0.0 | 0.0 | 0.00 | 0.00 | 0.39 | 97 | 1015.3 |
| 20260905034600 | 70 | 148 | 0.0 | 0.0 | 0.00 | 0.00 | 0.39 | 97 | 1015.3 |
| 20260905034059 | 71 | 137 | 0.0 | 0.0 | 0.00 | 0.00 | 0.39 | 97 | 1015.3 |
| 20260905033559 | 71 | 117 | 0.0 | 3.0 | 0.00 | 0.00 | 0.39 | 97 | 1015.5 |
| 20260905033056 | 71 | 223 | 0.0 | 0.0 | 0.00 | 0.00 | 0.39 | 97 | 1015.6 |
| 20260905032555 | 71 | 223 | 0.0 | 0.0 | 0.00 | 0.00 | 0.39 | 97 | 1015.7 |
| 20260905032055 | 71 | 223 | 0.0 | 0.0 | 0.00 | 0.00 | 0.39 | 97 | 1015.8 |
| 20260905031554 | 71 | 223 | 0.0 | 0.0 | 0.00 | 0.00 | 0.39 | 97 | 1015.8 |
| 20260905031053 | 71 | 223 | 0.0 | 0.0 | 0.00 | 0.00 | 0.39 | 97 | 1015.8 |
| 20260905030612 | 71 | 223 | 0.0 | 0.0 | 0.00 | 0.00 | 0.39 | 97 | 1015.8 |
| 20260905030051 | 71 | 223 | 0.0 | 0.0 | 0.00 | 0.00 | 0.39 | 97 | 1015.9 |
| 20260905025549 | 71 | 223 | 0.0 | 0.0 | 0.00 | 0.00 | 0.39 | 97 | 1015.9 |
| 20260905025048 | 71 | 223 | 0.0 | 0.0 | 0.00 | 0.00 | 0.39 | 97 | 1016.0 |
| 20260905024547 | 71 | 230 | 0.0 | 2.0 | 0.00 | 0.00 | 0.39 | 97 | 1015.9 |
| 20260905024047 | 72 | 63 | 0.0 | 0.0 | 0.00 | 0.00 | 0.39 | 97 | 1015.7 |
| 20260905023545 | 72 | 124 | 0.0 | 4.0 | 0.00 | 0.00 | 0.39 | 97 | 1015.7 |
| 20260905023045 | 72 | 114 | 0.0 | 4.0 | 0.00 | 0.00 | 0.39 | 98 | 1015.6 |
| 20260905022543 | 72 | 264 | 0.0 | 5.0 | 0.00 | 0.00 | 0.39 | 98 | 1015.5 |
| 20260905022042 | 72 | 0 | 0.0 | 0.0 | 0.00 | 0.00 | 0.39 | 98 | 1015.5 |
| 20260905021602 | 72 | 0 | 0.0 | 0.0 | 0.00 | 0.00 | 0.39 | 98 | 1015.4 |
| 20260905021040 | 72 | 0 | 0.0 | 0.0 | 0.00 | 0.00 | 0.39 | 98 | 1015.4 |
| 20260905020540 | 72 | 0 | 0.0 | 0.0 | 0.00 | 0.00 | 0.39 | 98 | 1015.4 |
| 20260905020039 | 72 | 0 | 0.0 | 0.0 | 0.00 | 0.00 | 0.39 | 97 | 1015.4 |
| 20260905015537 | 72 | 0 | 0.0 | 0.0 | 0.00 | 0.00 | 0.39 | 97 | 1015.6 |
| 20260905015037 | 72 | 0 | 0.0 | 0.0 | 0.00 | 0.00 | 0.39 | 97 | 1015.6 |
| 20260905014536 | 72 | 0 | 0.0 | 0.0 | 0.00 | 0.00 | 0.39 | 97 | 1015.6 |
| 20260905014055 | 72 | 0 | 0.0 | 0.0 | 0.00 | 0.00 | 0.39 | 97 | 1015.6 |
| 20260905013534 | 72 | 0 | 0.0 | 0.0 | 0.00 | 0.00 | 0.39 | 97 | 1015.5 |